GEFSSE_con_cape1000_156.txt.gz
Probability
58 94 100 100 100 100 100 100 100 100 100 100 100 100 100 100 100 100 100 100 100 100 100 100 100 100 97 97 94 87 87 87 87 81 84 87 87 90 97 87 87 68 87
84 94 100 100 100 100 100 100 100 100 100 100 100 100 100 100 100 100 100 100 100 100 100 100 100 97 94 90 94 90 90 90 84 90 94 90 87 94 87 90 81 74 87
87 97 100 100 100 100 100 100 100 100 100 100 100 100 100 100 100 100 100 100 100 97 97 97 97 97 97 94 97 97 97 100 97 97 90 65 90 97 94 90 87 90 94
94 94 97 100 100 100 100 100 100 100 100 100 100 100 100 100 100 100 100 100 97 94 94 97 97 97 94 90 94 97 100 94 90 74 55 65 71 94 90 90 90 90 94
87 94 100 100 100 100 100 100 100 100 100 100 100 100 100 100 100 100 100 100 100 97 97 97 94 97 97 94 90 94 97 94 90 55 52 68 87 94 94 87 84 87 90
87 97 100 100 100 100 100 100 100 100 100 100 100 100 100 100 100 100 100 100 97 97 97 97 94 97 94 100 97 94 94 87 48 45 55 74 94 90 97 87 87 90 87
87 97 100 100 100 100 100 100 100 100 100 100 100 100 100 100 100 100 100 97 97 97 97 97 94 97 94 94 90 87 81 71 29 39 61 71 90 94 90 87 90 94 97
94 97 100 100 100 100 100 100 100 100 100 100 100 100 100 100 100 100 100 100 97 97 97 100 90 94 94 94 94 90 87 68 42 52 61 74 97 97 94 90 87 94 97
100 100 100 100 100 100 100 100 100 100 100 100 100 100 97 100 100 97 97 97 97 94 94 94 94 90 90 94 94 90 77 68 16 52 48 84 100 97 90 84 87 94 87
94 94 94 97 100 100 100 100 100 100 100 100 100 100 97 97 97 97 97 97 97 90 84 87 87 87 87 94 84 84 74 52 16 48 61 87 97 90 90 90 87 84 84
97 94 94 94 97 100 100 100 100 100 100 100 100 100 97 81 81 94 94 97 90 84 81 77 81 87 87 90 81 77 52 10 23 48 65 87 90 90 87 87 84 81 81
94 94 90 90 87 90 94 90 94 94 97 97 90 81 65 61 68 84 94 90 74 77 84 74 68 71 32 32 61 45 13 6 19 48 77 90 90 84 81 84 84 81 74
87 90 90 87 87 87 87 87 84 87 84 74 68 52 45 35 48 35 52 55 45 48 29 39 19 13 0 13 3 3 6 19 26 48 74 90 90 81 81 84 81 77 65
65 84 84 84 84 84 84 84 77 68 65 58 48 32 26 23 23 26 26 29 23 13 10 3 3 0 0 3 3 0 6 10 19 39 65 87 84 84 81 77 74 74 65
52 74 77 84 84 65 74 81 77 58 55 45 32 29 13 10 16 16 13 10 6 3 3 3 3 3 0 3 3 3 6 13 19 32 55 84 87 87 81 68 68 68 68
35 55 68 77 68 52 61 52 45 35 39 29 29 23 16 16 10 6 3 3 3 3 3 6 6 3 3 10 3 3 3 13 19 26 42 81 90 90 84 74 65 65 65
29 32 52 65 58 35 35 35 29 32 26 26 23 23 19 6 0 0 0 3 3 3 3 3 3 6 3 6 6 10 10 13 13 13 26 45 87 87 84 84 84 77 65
23 29 42 58 48 26 26 23 26 29 26 23 19 13 19 6 3 0 0 0 0 0 3 3 6 3 3 3 10 6 6 13 16 10 23 26 39 55 77 90 87 87 61
32 35 39 45 32 23 19 19 23 16 16 16 16 16 10 6 3 0 0 0 0 0 0 3 3 3 3 3 0 0 3 3 10 6 10 19 19 26 45 52 81 87 65
32 32 29 29 23 19 6 10 10 10 16 16 10 10 6 3 0 0 0 0 0 0 0 0 0 0 0 3 0 0 0 0 3 6 6 6 6 6 13 23 48 65 74
35 32 26 26 16 10 10 13 16 13 10 6 6 6 6 3 0 0 0 0 0 0 0 0 0 0 0 0 0 0 0 0 0 0 0 3 6 6 3 6 16 29 29
35 35 29 19 16 10 10 13 13 10 10 10 6 6 6 0 0 0 0 0 0 0 0 0 0 0 0 0 0 0 0 0 0 0 0 0 0 3 10 3 3 10 13
35 29 29 26 16 16 10 10 10 10 10 6 6 6 3 3 0 0 0 0 0 0 0 0 0 0 0 0 0 0 0 0 0 0 0 0 0 0 0 3 0 3 3
29 29 32 16 13 13 10 16 16 13 13 10 10 10 0 0 3 3 0 0 0 0 0 0 0 0 0 0 0 0 0 0 0 0 0 0 0 0 0 3 3 3 3
42 39 35 19 19 13 16 16 13 6 10 6 6 6 3 0 3 3 3 3 0 0 0 0 0 0 0 0 0 0 0 0 0 0 0 0 0 0 0 0 0 0 0
42 45 32 23 26 16 13 10 13 10 6 6 6 6 3 3 3 3 3 3 3 0 0 0 0 0 0 0 0 0 0 0 0 0 0 0 0 0 0 0 0 0 0

GEFSSE_con_cape1000_162.txt.gz
Probability
10 45 97 100 100 100 100 100 100 100 100 100 100 100 100 100 100 100 100 100 100 100 100 94 90 84 94 84 84 84 81 81 77 84 87 84 84 77 71 81 77 71 81
10 48 100 100 100 100 100 100 100 100 100 100 100 100 100 100 100 100 100 100 100 100 97 90 94 87 87 84 87 87 87 81 81 87 84 87 87 81 81 71 81 81 74
26 58 94 100 100 100 100 100 100 100 100 100 100 100 100 100 100 100 100 100 97 94 94 94 90 90 87 90 90 94 90 90 87 81 81 71 71 81 84 87 84 81 84
29 68 90 100 100 100 100 100 100 100 100 100 100 100 100 100 100 100 100 94 94 94 90 90 90 90 90 94 90 97 94 90 84 87 68 58 65 77 87 84 84 81 87
68 94 97 100 100 100 100 100 100 100 100 100 100 100 100 100 100 100 100 94 94 94 94 90 94 90 90 94 94 94 94 84 61 58 61 68 87 90 90 81 81 81 90
71 77 97 100 100 100 100 100 100 100 100 100 100 100 100 100 100 100 100 97 97 97 97 100 97 97 94 94 94 94 87 68 52 32 48 68 84 87 94 81 81 87 87
58 77 90 100 100 100 100 100 100 100 100 100 100 100 100 100 100 100 100 100 100 94 97 97 97 97 90 87 90 77 71 48 35 39 48 61 87 87 84 84 94 87 87
65 71 100 100 100 100 100 100 100 100 100 100 100 100 100 100 100 100 100 97 97 100 94 90 90 90 94 87 90 81 61 42 23 26 48 68 84 90 90 94 97 87 84
58 77 94 97 100 100 100 100 100 100 100 100 100 97 97 97 97 97 97 97 90 97 94 84 90 94 87 87 87 81 61 39 10 32 29 71 84 87 87 87 87 87 90
68 74 97 84 100 100 100 100 100 100 100 100 100 97 97 97 97 97 97 97 87 81 77 77 81 90 90 81 84 77 58 35 6 10 35 58 84 84 84 81 77 84 90
77 81 81 84 100 94 97 97 100 100 100 100 100 97 100 87 77 97 87 94 87 84 77 77 77 90 77 81 71 65 52 13 6 13 42 77 87 81 74 68 74 77 77
94 90 87 84 97 97 77 94 94 87 90 90 97 90 90 90 81 71 94 84 81 77 74 68 71 68 61 71 55 48 35 16 13 19 48 81 81 77 68 68 68 68 68
100 94 87 97 97 97 97 90 90 87 94 87 90 84 94 77 55 61 74 74 77 71 48 55 45 39 26 45 42 35 32 16 16 19 58 68 77 71 74 71 65 52 61
94 97 87 94 97 97 97 97 90 87 84 77 87 84 77 71 68 65 74 55 58 65 61 35 58 45 45 35 32 32 19 16 13 35 87 68 68 71 68 68 68 58 61
90 94 90 94 90 90 90 87 71 81 71 84 87 81 77 61 61 71 77 74 42 42 45 48 45 61 48 42 29 23 16 19 13 23 65 74 74 68 65 68 74 55 58
87 94 94 90 87 84 87 90 84 71 90 81 77 81 84 61 61 61 68 71 48 42 35 35 39 52 45 45 39 32 26 16 26 39 45 71 74 77 68 65 58 65 58
90 90 94 87 84 84 84 77 71 65 71 74 87 90 74 68 71 65 48 58 48 35 52 61 48 42 45 39 39 42 29 29 35 35 26 45 55 65 77 71 65 61 52
90 94 94 81 84 87 81 77 68 65 55 71 68 77 68 68 71 84 55 55 52 48 55 52 42 48 42 52 48 45 35 48 32 32 26 32 39 29 55 71 61 61 52
87 94 90 81 87 87 87 77 77 81 71 74 61 61 68 68 68 65 71 68 71 58 52 45 35 45 48 42 35 52 26 32 42 26 26 16 23 35 45 71 74 77 58
87 90 87 94 94 90 87 84 77 77 71 74 65 68 68 71 71 68 71 77 61 55 52 61 48 58 45 48 6 16 26 29 26 26 26 19 26 19 13 35 65 68 71
87 87 97 94 94 94 90 84 81 77 74 71 68 52 55 61 61 74 58 81 68 61 58 39 55 45 35 39 29 19 19 16 19 35 32 29 26 16 19 26 39 52 65
97 94 94 90 90 90 87 87 81 87 71 61 61 61 58 58 61 55 81 61 61 68 68 65 65 58 35 29 32 32 29 29 48 3 23 29 13 10 16 19 32 45 35
97 94 84 90 90 87 87 77 68 74 65 52 55 61 55 65 61 68 65 65 65 58 65 71 68 61 42 42 29 29 26 23 16 10 19 16 26 26 23 19 26 42 39
97 90 94 94 87 84 81 71 58 58 48 52 55 65 58 65 61 58 61 58 68 61 71 58 52 61 55 45 26 39 16 26 16 13 16 10 16 32 29 10 13 23 32
87 87 90 90 81 74 71 71 68 58 58 55 58 58 61 61 58 61 61 61 68 58 55 52 58 58 48 45 32 32 35 35 13 26 19 16 10 10 16 26 16 19 23
77 77 77 74 77 68 68 65 65 58 61 48 58 55 65 61 52 52 55 58 58 48 45 48 58 52 52 58 55 35 32 35 23 13 10 16 16 10 3 23 10 13 19

GEFSSE_con_cape1000_168.txt.gz
Probability
42 77 94 94 94 97 97 97 100 100 100 100 97 100 100 100 100 100 100 100 97 94 90 90 84 87 84 84 84 81 77 81 81 87 90 90 81 71 74 77 71 58 81
58 87 97 100 100 100 100 100 100 100 100 100 97 100 100 100 100 100 100 94 94 90 87 87 87 90 90 90 81 81 81 84 81 87 90 77 71 68 71 71 65 61 74
61 94 97 100 100 100 100 100 100 100 100 100 100 100 100 100 100 100 97 90 94 90 87 94 94 94 87 90 94 87 84 87 81 77 84 55 71 81 77 74 68 77 81
48 84 97 100 100 100 100 100 100 100 100 100 100 100 100 100 100 100 97 97 97 90 90 94 94 94 87 90 87 81 81 84 74 77 55 45 42 81 81 77 87 84 77
87 97 97 100 100 100 100 100 100 100 100 100 100 100 100 100 100 97 94 97 97 94 90 94 94 90 94 90 84 77 68 74 68 71 55 58 58 81 81 81 87 77 81
94 90 100 100 100 100 100 100 100 100 100 100 100 100 100 100 100 97 97 97 97 97 94 87 87 94 90 84 71 68 68 68 68 48 61 65 68 84 87 87 87 87 84
81 90 100 100 100 100 100 100 100 100 100 100 100 100 100 100 100 100 100 100 100 100 100 94 87 94 90 71 55 48 65 81 58 55 74 71 81 90 90 87 90 84 77
77 94 100 100 100 100 100 100 100 100 100 100 100 100 100 100 100 100 100 97 97 97 94 97 100 100 84 68 55 58 71 77 61 65 55 71 90 94 87 84 84 77 74
77 94 97 100 100 100 100 100 100 100 100 100 100 100 100 97 97 97 97 97 90 90 90 94 97 94 77 58 55 71 77 84 58 65 45 55 94 90 87 81 87 81 81
68 68 97 100 100 100 100 100 100 100 100 100 100 97 97 94 90 94 100 90 84 84 81 84 87 77 61 52 48 68 81 77 42 35 39 61 84 84 77 74 74 74 77
74 74 77 90 94 94 90 94 94 100 100 100 97 97 97 97 87 90 87 84 74 77 74 81 71 68 65 48 52 61 74 52 35 29 45 77 81 74 71 68 74 71 74
81 71 84 84 87 81 77 94 97 90 97 100 100 100 97 100 100 71 90 74 65 65 65 77 84 71 65 42 45 65 55 45 32 29 45 94 94 81 68 71 74 65 68
77 77 84 90 94 84 90 94 94 97 97 97 90 97 97 97 94 84 81 74 84 68 84 74 71 58 52 68 65 68 52 35 26 19 55 90 90 74 71 61 61 61 68
84 77 87 87 90 90 87 90 94 87 97 90 97 94 97 97 94 94 100 94 97 97 87 81 84 87 68 61 52 48 42 42 42 45 61 84 90 84 77 65 52 58 68
90 84 94 90 94 94 94 87 87 90 90 94 94 94 97 94 90 90 97 97 97 97 87 81 87 90 87 65 45 42 42 42 48 48 52 81 81 81 77 61 52 45 52
90 90 94 97 94 94 90 94 94 97 94 87 87 94 97 97 97 90 87 97 100 97 97 100 87 84 81 87 68 58 52 52 71 68 52 68 84 81 77 74 61 58 48
97 97 97 100 97 94 94 94 87 94 87 84 90 87 84 90 94 94 90 87 94 94 94 94 77 84 77 71 68 55 65 68 68 68 68 55 55 74 77 74 77 68 65
97 97 97 87 94 90 97 97 97 94 97 90 90 87 84 87 81 100 94 90 97 97 100 100 97 87 81 71 71 65 74 71 52 65 68 71 55 29 65 81 77 81 65
97 97 97 94 90 87 97 97 87 90 87 84 87 84 87 87 71 87 97 94 90 100 100 65 84 77 81 74 58 65 68 65 68 52 58 52 58 55 35 65 87 84 65
97 97 97 94 94 90 87 90 87 87 81 87 81 84 74 87 77 84 94 94 90 94 90 90 90 81 90 84 35 35 52 61 74 61 55 48 52 55 45 42 65 65 84
97 97 97 97 97 94 90 87 87 87 84 84 77 77 71 81 74 84 87 87 94 100 94 81 87 81 81 81 61 55 48 58 65 71 61 48 42 45 55 61 55 58 32
97 97 94 97 100 100 97 90 90 90 87 87 81 77 74 81 84 65 87 87 94 97 84 84 84 71 71 74 65 45 35 39 68 35 65 65 48 55 45 45 65 74 52
97 97 94 94 97 97 94 87 84 84 87 81 77 87 81 74 77 87 94 84 94 90 81 87 81 71 65 71 65 55 29 16 42 48 61 55 65 65 58 48 55 61 61
94 97 97 97 97 94 94 94 84 84 77 77 74 81 77 74 77 71 81 87 77 81 84 77 77 81 71 58 68 61 52 52 39 19 39 48 58 55 58 39 35 48 58
94 94 97 97 97 90 94 90 90 81 87 81 74 68 81 77 68 68 74 71 74 84 84 81 90 74 74 65 61 52 45 48 35 32 19 29 42 48 55 48 35 45 48
94 94 94 94 87 87 84 84 90 84 81 74 71 65 65 61 61 61 68 65 74 87 81 81 81 71 74 74 68 61 58 48 48 39 23 29 26 35 42 48 45 48 48

GEFSSE_con_cape1000_174.txt.gz
Probability
81 84 94 97 97 97 100 100 100 100 100 100 100 100 100 100 100 100 100 100 97 97 97 97 94 87 87 90 84 84 81 81 81 90 87 84 84 81 77 81 74 55 74
87 90 94 97 100 100 100 100 100 100 100 100 100 100 100 100 100 100 97 97 97 97 100 100 97 94 97 94 84 87 87 94 97 90 81 77 81 74 77 74 65 55 77
87 94 100 100 100 100 100 100 100 100 100 100 100 100 100 100 100 100 100 94 94 100 94 97 97 94 94 90 90 90 90 90 90 84 77 55 68 71 81 74 71 71 71
87 90 94 100 100 100 100 100 100 100 100 100 100 100 100 100 100 100 97 94 94 97 97 97 94 94 90 90 94 87 87 77 74 61 32 39 42 74 74 87 81 68 71
90 90 97 100 100 100 100 100 100 100 100 100 100 100 100 100 100 100 100 100 97 97 97 94 97 97 94 84 84 84 90 84 68 35 19 26 32 84 84 81 77 68 68
90 100 100 100 100 100 100 100 100 100 100 100 100 100 100 100 100 97 100 100 100 97 94 90 90 87 87 87 81 81 74 74 42 13 16 35 39 94 87 87 81 77 74
97 100 100 100 100 100 100 100 100 100 100 100 100 100 100 97 100 100 100 100 100 97 94 90 87 94 87 81 81 84 74 61 6 16 26 35 65 90 87 81 77 81 74
100 100 100 100 100 100 100 100 100 100 100 100 100 100 100 100 100 100 100 100 97 97 94 94 94 90 87 74 74 84 87 77 23 16 26 42 90 94 87 77 81 81 77
97 97 100 100 100 100 100 100 100 100 100 100 100 100 100 100 100 100 100 97 90 90 94 90 71 65 68 68 81 81 84 77 0 6 23 45 90 90 84 84 81 81 74
84 94 97 100 94 100 100 100 100 100 100 100 100 100 100 100 100 100 100 90 87 84 81 55 52 52 65 68 68 71 84 55 3 10 23 55 97 81 81 84 84 87 71
81 87 87 90 90 94 100 100 100 100 100 100 97 100 94 74 74 74 90 81 77 77 65 48 58 55 58 61 71 84 45 0 3 13 26 77 97 81 77 77 84 81 74
58 74 74 81 77 74 87 84 81 87 90 68 61 74 55 55 45 48 84 87 71 71 74 58 55 55 42 10 23 42 3 3 3 16 42 90 94 84 68 77 77 77 74
58 61 55 55 55 65 71 71 68 65 52 61 52 52 42 32 32 35 39 61 48 58 29 42 48 23 13 3 3 3 3 0 0 10 42 87 90 77 71 74 77 77 71
45 55 45 52 45 45 48 68 58 48 45 45 42 35 26 19 19 13 26 23 10 10 6 13 13 6 3 0 0 3 3 3 0 10 29 90 94 87 71 68 71 74 68
42 39 42 39 39 42 39 45 45 48 42 35 32 32 19 16 13 16 19 16 19 13 10 6 0 6 3 0 0 0 3 6 0 10 29 84 90 90 77 61 77 68 71
45 39 45 42 39 35 39 42 39 48 35 32 29 26 19 16 13 3 6 16 16 3 6 3 3 3 0 0 0 3 3 3 3 3 10 71 90 87 84 77 74 77 71
45 61 55 55 52 48 48 39 35 35 26 29 26 23 16 13 10 10 0 0 0 0 3 3 0 0 0 3 0 3 0 0 6 3 10 19 58 90 90 90 84 77 71
61 58 58 68 52 48 48 42 29 29 23 26 19 16 10 13 16 13 6 0 0 0 0 0 3 0 0 0 0 0 0 0 6 6 6 3 3 26 74 84 84 84 71
65 61 58 52 52 45 32 26 32 23 19 23 19 23 16 16 10 6 10 0 3 0 0 0 0 0 0 0 0 0 0 0 0 3 3 3 0 0 6 48 87 87 81
71 65 55 58 58 45 42 35 29 26 26 19 19 19 16 13 13 6 3 3 3 0 0 0 0 0 0 0 0 0 0 0 0 0 0 3 3 0 0 3 26 52 81
77 68 58 61 52 52 52 48 32 26 23 19 13 19 13 13 10 3 6 3 0 0 0 0 0 0 0 0 0 0 0 0 0 0 0 0 0 0 0 0 3 0 10
81 74 68 58 61 61 55 42 39 29 19 16 16 10 6 10 10 6 3 3 0 0 0 0 0 0 0 0 0 0 0 0 0 0 0 0 0 0 0 0 0 0 0
74 74 74 74 68 65 55 48 39 29 16 16 13 6 10 16 13 3 3 0 3 0 0 0 0 0 0 0 0 0 0 0 0 0 0 0 0 0 0 0 0 0 3
81 81 74 74 68 61 58 58 29 23 19 13 6 13 10 16 16 10 3 3 6 3 0 0 3 0 0 0 0 0 0 0 0 0 0 0 0 0 0 0 0 0 0
81 81 74 68 65 68 52 55 32 19 19 13 6 10 13 16 19 16 16 16 10 3 3 3 3 0 0 0 3 0 0 0 0 0 0 0 0 0 0 0 0 0 0
84 84 81 74 65 65 52 45 32 23 23 16 16 10 13 13 19 16 16 16 16 10 3 6 6 6 6 6 3 3 0 0 0 0 0 0 0 0 0 0 0 0 0

GEFSSE_con_cape1000_180.txt.gz
Probability
48 77 94 94 94 94 97 100 100 100 100 100 100 100 100 100 100 97 100 100 100 90 87 84 87 94 94 84 87 87 87 84 84 84 81 87 81 77 71 71 65 42 65
74 84 94 94 97 100 100 100 100 100 100 100 100 100 100 97 97 97 97 97 97 90 90 90 90 90 90 87 90 90 90 87 87 87 81 81 81 77 74 68 52 48 61
81 87 94 97 97 100 100 100 100 100 100 100 100 100 100 100 97 97 97 97 97 97 94 94 90 87 90 87 87 87 90 87 84 84 68 58 68 71 71 68 71 68 58
81 84 94 100 100 100 100 100 100 100 100 100 100 100 100 100 100 94 97 97 97 97 97 97 94 94 97 90 90 94 84 81 84 65 32 45 52 58 71 65 68 68 65
84 87 94 100 100 100 100 100 100 100 100 100 100 100 100 100 100 100 100 97 97 97 97 94 94 90 97 97 90 94 94 74 68 32 26 42 58 65 68 71 68 68 61
84 90 97 100 100 100 100 100 100 100 100 100 100 100 100 100 100 100 100 100 97 97 100 94 94 94 94 90 87 90 84 84 42 19 39 45 65 87 77 74 68 71 68
87 94 100 100 100 100 100 100 100 100 100 100 100 100 100 100 100 100 100 97 97 97 100 94 94 94 94 87 90 90 81 58 6 16 45 45 81 90 77 71 68 65 71
90 94 100 100 100 100 100 100 100 100 100 100 100 100 100 100 100 100 94 94 97 94 90 94 87 87 87 87 87 90 74 48 32 26 35 55 87 90 74 74 68 71 74
90 94 97 97 100 100 100 100 100 100 100 100 100 100 97 97 94 100 94 90 87 87 84 81 81 84 84 77 77 87 77 52 3 26 29 58 87 90 77 74 65 68 68
90 94 94 94 97 100 100 100 100 100 100 100 100 100 94 90 87 94 97 90 77 81 84 77 74 74 77 77 77 81 87 42 16 19 35 58 90 81 71 65 61 61 61
87 87 87 87 94 94 100 100 100 97 97 94 84 97 77 48 52 68 84 81 74 68 65 68 74 77 81 71 84 81 45 13 13 19 32 65 87 74 81 65 61 55 52
74 74 68 71 81 81 87 77 68 74 68 61 55 52 32 23 29 52 81 81 68 77 65 71 81 61 23 29 45 39 6 10 16 19 39 68 84 81 77 68 61 55 52
26 65 55 61 52 58 61 58 58 48 48 52 48 26 19 19 19 16 23 26 23 32 23 29 26 19 10 6 10 3 3 6 10 26 45 68 84 77 74 61 61 58 52
26 45 42 39 39 39 39 48 52 39 42 42 39 23 13 13 10 10 13 10 10 6 3 6 3 3 0 3 3 3 3 3 10 16 48 65 77 68 58 58 65 61 52
19 23 32 35 32 35 23 35 42 39 35 32 26 19 10 13 10 6 10 6 6 6 3 3 3 0 3 3 0 3 3 0 13 16 32 48 77 77 68 48 55 48 55
19 16 26 29 23 13 13 19 23 16 19 23 19 16 10 6 6 0 3 6 6 6 6 6 3 3 3 3 3 3 0 3 6 16 16 45 74 77 68 61 55 55 58
16 10 16 16 13 6 6 10 13 16 13 13 13 10 10 3 0 0 0 3 3 3 3 0 0 0 0 0 6 3 3 6 10 6 16 26 45 74 81 68 71 68 65
16 19 19 32 10 13 6 6 13 10 10 13 10 10 10 6 3 0 0 3 3 3 3 0 0 0 0 0 3 0 0 3 13 10 3 19 23 29 61 84 77 74 68
19 19 19 16 13 13 10 6 16 10 10 6 6 10 6 6 3 0 0 0 0 3 0 0 0 0 0 0 0 0 0 0 3 3 0 10 10 16 19 39 74 84 74
26 19 19 23 16 13 10 10 13 6 3 3 3 6 6 3 3 0 0 0 0 0 0 0 0 0 0 0 0 0 0 0 0 0 0 3 3 3 6 10 26 45 58
39 32 26 26 19 19 19 13 13 3 6 3 3 6 6 6 3 0 0 0 0 0 0 0 0 0 0 0 0 0 0 0 0 0 0 0 3 0 0 0 6 10 13
35 35 39 29 23 23 16 10 3 3 3 3 6 3 3 3 3 3 0 0 0 0 0 0 0 0 0 0 0 0 0 0 0 0 0 0 0 3 3 0 0 3 3
48 39 39 35 29 19 10 6 3 3 3 3 3 3 3 0 0 0 0 0 0 0 0 0 0 0 0 0 0 0 0 0 0 0 0 0 0 0 0 0 0 3 3
55 45 42 39 29 19 13 10 10 3 6 3 3 3 3 6 0 0 0 0 0 0 0 0 0 0 0 0 0 0 0 0 0 0 0 0 0 0 0 0 0 3 6
58 42 35 29 26 19 16 10 6 10 3 3 6 6 6 6 3 3 6 0 0 0 0 0 0 0 0 0 0 0 0 0 0 0 0 0 0 0 0 0 0 0 3
55 39 35 29 23 23 16 13 13 13 6 6 6 6 6 6 6 10 10 6 6 3 0 0 0 0 0 0 3 3 3 3 0 0 0 0 0 3 3 0 0 0 0

GEFSSE_con_cape1000_186.txt.gz
Probability
10 32 77 94 94 94 94 94 97 97 100 100 100 100 100 97 94 94 90 90 84 84 84 84 84 77 77 74 74 87 84 77 84 81 71 61 65 65 61 55 55 42 61
13 42 87 90 97 97 100 97 100 100 100 100 100 100 97 94 94 94 90 90 81 81 77 81 81 94 84 87 87 84 84 81 74 68 68 58 55 61 55 55 55 52 61
29 58 84 94 97 100 100 100 100 100 100 100 100 100 100 97 94 90 94 84 87 87 87 87 87 84 87 87 94 81 84 84 90 77 65 52 52 55 61 58 52 55 58
29 48 81 97 100 100 100 100 100 100 100 100 100 100 100 100 90 90 90 97 94 90 90 84 87 81 81 90 87 84 81 77 71 61 45 35 29 52 58 55 61 55 48
42 71 94 100 100 100 100 100 100 100 100 100 100 100 100 100 97 97 94 97 97 97 97 87 84 84 84 84 84 71 71 61 55 48 42 55 65 52 65 58 58 55 55
45 65 90 100 100 100 100 100 100 100 100 100 100 97 100 100 100 100 97 97 97 100 97 94 90 81 77 81 81 74 61 48 52 29 42 45 61 71 61 61 61 65 61
39 65 84 97 100 100 100 100 100 100 100 100 100 100 100 100 100 100 100 97 97 97 97 94 90 81 77 77 74 68 55 48 23 39 42 48 68 74 71 65 68 61 58
32 61 94 100 97 97 97 100 100 100 100 100 100 100 100 100 100 97 94 97 97 97 94 90 87 84 81 81 84 68 52 35 10 16 42 52 84 77 71 68 68 65 55
32 65 74 87 97 94 94 94 94 100 100 100 100 100 97 100 94 97 94 87 81 81 87 87 77 84 77 74 68 65 35 42 16 23 29 55 77 84 58 55 55 65 52
23 48 65 68 71 84 84 90 94 94 97 97 94 97 97 90 87 94 90 87 84 81 77 74 68 71 74 81 71 61 45 39 16 10 32 48 87 65 58 42 48 45 48
42 48 45 61 77 74 71 71 94 94 90 97 94 84 84 71 61 77 77 87 81 74 71 68 71 61 68 74 61 61 39 26 16 19 39 58 74 65 55 48 52 42 35
35 45 42 45 77 68 58 94 90 68 84 87 87 81 81 81 77 55 84 90 74 71 65 68 65 52 48 45 48 42 16 16 10 19 48 68 65 61 58 48 42 35 35
35 35 39 65 81 65 77 81 81 71 81 74 77 74 84 65 61 48 74 77 71 58 48 42 42 39 29 35 45 26 13 10 10 16 35 65 68 61 58 58 55 32 35
39 39 39 55 87 87 77 71 74 68 71 71 74 55 55 48 58 55 58 55 58 58 52 26 42 29 35 32 29 26 19 13 13 19 65 61 61 58 48 45 48 39 45
48 48 58 68 87 87 84 81 58 74 61 68 68 61 58 48 48 45 68 58 35 42 48 58 42 48 42 32 23 23 23 16 10 16 55 52 58 61 55 42 48 45 39
61 52 61 65 81 84 87 87 68 61 68 65 65 68 61 52 58 48 68 68 58 52 48 55 52 52 42 29 29 29 23 23 26 32 32 58 61 61 68 52 48 45 45
65 58 74 74 74 77 74 74 61 61 55 65 68 71 71 58 65 65 52 61 52 58 55 61 55 52 52 29 35 29 26 42 48 48 42 55 68 61 65 58 58 52 52
68 77 77 48 61 77 84 87 61 61 68 68 65 52 65 68 61 65 48 39 58 42 52 65 48 45 35 39 45 35 42 61 48 45 42 48 55 45 61 65 65 61 58
87 90 90 87 74 77 77 90 84 87 71 68 58 52 55 61 58 55 45 68 52 42 45 42 45 45 45 48 39 39 35 39 45 32 39 32 42 48 55 65 68 74 65
87 87 87 90 90 87 84 87 84 77 77 68 58 58 58 61 61 61 55 58 45 45 55 58 61 74 65 61 13 13 39 32 32 32 32 29 32 29 26 35 55 61 71
87 87 87 87 90 94 90 84 81 77 74 74 58 52 55 58 52 58 45 61 48 48 52 42 42 32 39 48 39 32 23 13 23 45 39 23 26 26 29 42 45 48 55
94 90 90 94 94 94 94 97 94 81 71 68 68 68 58 52 55 35 65 52 48 58 48 52 55 48 42 35 35 32 19 19 32 3 35 32 26 29 35 39 42 58 55
94 90 90 94 94 94 90 81 74 71 71 68 71 71 65 58 55 55 52 55 52 42 48 65 68 65 55 39 39 45 26 23 19 13 13 16 32 39 39 39 42 45 52
90 90 94 94 94 94 90 81 77 74 71 71 71 65 71 55 52 55 55 55 52 45 58 39 42 52 55 39 39 48 29 26 23 23 23 19 26 45 42 23 23 32 45
84 90 94 90 87 90 84 74 81 71 71 65 68 65 61 52 48 45 58 48 58 58 55 58 68 74 65 61 55 42 32 35 23 32 19 19 16 13 19 35 29 29 42
87 81 77 84 84 81 81 71 74 68 68 61 61 68 61 55 55 48 48 58 58 55 58 65 65 65 65 58 52 45 45 39 35 42 32 32 35 19 10 16 26 32 39

GEFSSE_con_cape1000_192.txt.gz
Probability
32 61 90 90 90 90 97 97 97 97 97 97 97 97 97 97 94 94 90 90 90 87 77 81 65 68 71 77 74 77 74 81 71 61 68 68 71 68 61 65 55 42 71
48 71 94 94 94 97 97 97 97 97 97 100 94 97 97 97 97 97 94 87 84 81 84 77 81 77 77 84 77 74 68 77 74 74 68 58 58 61 68 61 48 52 68
42 65 87 100 100 100 100 97 97 100 97 100 97 94 94 90 97 97 94 94 84 77 77 74 81 87 87 87 81 84 68 68 74 71 65 26 39 52 65 58 55 61 65
58 71 84 100 100 100 100 100 100 100 100 100 100 100 87 87 94 97 100 97 90 84 84 77 81 74 81 77 77 77 74 74 74 65 39 19 26 48 55 55 68 58 58
77 81 100 100 100 100 100 100 100 100 100 97 100 100 97 94 97 97 90 90 94 90 81 87 84 77 77 77 68 61 58 58 52 45 26 29 39 61 55 48 52 52 52
77 74 100 100 100 100 100 100 100 100 100 100 100 100 100 97 97 94 97 97 94 94 87 87 84 68 74 65 61 48 45 52 52 39 39 35 39 74 58 58 48 48 52
65 84 90 100 100 100 100 97 97 100 100 100 100 100 100 97 97 97 97 97 94 94 87 87 81 77 68 58 45 45 55 55 52 39 52 45 58 81 68 65 45 55 52
52 71 97 100 100 97 94 97 90 97 97 100 100 100 97 100 100 97 94 94 94 90 87 90 87 84 65 55 55 45 48 58 42 32 52 42 71 71 61 65 55 45 45
48 74 90 87 90 94 94 94 94 94 94 97 94 94 97 94 97 94 90 87 81 87 81 81 74 68 58 48 39 42 58 68 39 32 29 48 81 58 52 52 42 42 45
39 58 84 84 84 90 90 94 100 90 90 94 87 87 87 90 87 90 90 84 74 71 77 65 71 65 55 39 35 48 65 65 16 23 35 52 84 58 48 42 35 32 35
52 58 65 74 87 87 71 71 94 94 84 90 90 87 90 94 84 90 84 87 68 68 61 71 71 65 65 42 48 52 52 32 19 26 39 61 74 58 48 39 35 35 39
42 42 65 77 87 81 74 97 97 84 97 97 94 94 97 97 87 52 84 81 68 68 65 77 77 71 71 32 39 55 39 29 23 26 35 77 71 61 58 39 32 32 32
39 48 61 77 87 90 97 90 97 97 94 94 90 90 97 90 87 77 81 71 90 68 74 81 77 58 48 55 65 48 39 23 29 23 45 77 65 65 55 48 45 42 39
52 48 48 68 90 100 100 94 90 84 90 90 94 90 97 94 90 87 94 87 94 84 81 74 81 81 61 68 52 42 32 32 29 32 48 74 71 61 45 48 42 42 39
65 61 74 84 94 97 97 97 90 90 74 84 94 87 90 90 84 84 94 87 87 84 87 87 84 71 81 68 42 45 35 29 39 35 42 68 68 68 58 45 39 42 42
61 74 74 87 90 97 97 90 87 77 87 77 90 81 77 87 90 87 84 94 94 90 84 90 87 77 87 77 71 65 58 42 48 48 45 61 71 74 71 55 52 45 35
81 84 87 90 90 90 90 87 77 81 68 71 81 81 71 81 77 90 90 87 84 84 84 87 84 87 71 65 68 65 68 61 55 55 58 48 48 68 68 71 71 58 45
84 94 87 68 81 87 94 90 84 74 81 81 77 87 74 84 77 87 87 87 90 87 84 84 77 84 77 77 77 71 68 81 65 61 61 58 58 42 61 74 77 71 61
94 94 90 90 90 90 90 90 81 81 77 81 77 84 71 77 71 81 84 94 90 84 84 61 81 84 77 87 74 77 65 71 61 48 55 52 52 58 45 55 74 71 68
90 90 90 87 94 94 90 94 87 84 81 81 77 77 84 81 77 81 84 87 84 87 84 77 68 87 87 84 39 48 61 48 55 61 48 39 45 45 39 39 52 55 71
90 90 90 90 94 90 94 90 90 84 87 81 81 74 84 81 77 84 77 90 90 81 84 74 77 81 84 84 65 55 45 42 42 61 52 48 39 45 42 45 39 39 45
90 90 90 90 90 90 90 94 94 87 84 90 90 90 81 81 81 68 90 87 77 87 84 77 77 71 71 71 71 55 26 26 55 19 52 52 45 52 48 39 45 61 61
90 94 90 94 90 90 94 94 94 87 87 84 87 84 84 77 77 77 77 87 87 84 81 81 77 71 71 68 71 55 29 16 26 39 39 39 48 45 45 35 35 55 52
87 90 94 90 90 90 94 87 87 81 84 84 84 77 81 81 74 77 74 81 84 74 77 74 74 84 77 74 74 71 61 52 29 29 42 45 39 45 45 23 32 45 45
81 87 94 90 90 87 84 87 87 84 74 71 77 77 74 74 74 65 74 71 71 74 71 81 77 77 81 71 65 61 55 55 45 39 26 26 29 35 42 39 52 48 39
87 87 87 90 87 84 84 84 84 84 84 81 74 74 71 74 68 65 68 74 74 74 74 81 81 77 74 68 61 55 45 45 52 48 26 23 16 26 32 39 39 42 39

GEFSSE_con_cape1000_198.txt.gz
Probability
58 84 90 94 94 97 97 97 94 94 97 97 94 94 94 94 94 90 94 90 90 87 84 84 81 81 87 84 84 87 74 81 77 68 65 61 58 71 71 74 61 48 58
74 84 90 97 97 97 97 97 97 97 97 97 97 97 97 97 94 94 94 90 87 87 84 87 87 87 84 87 87 81 71 71 74 61 58 58 58 71 65 58 52 48 65
77 84 94 97 97 97 97 97 97 100 97 97 97 97 97 97 97 97 90 90 87 87 84 87 87 87 90 81 81 81 71 68 68 61 48 19 35 61 58 61 52 65 61
71 81 97 100 100 100 100 100 100 100 100 97 97 97 97 97 97 97 94 90 94 90 81 87 90 84 84 74 74 84 77 74 58 48 3 10 23 61 68 65 55 58 58
68 87 97 100 100 100 100 100 100 100 100 100 100 97 97 97 97 94 94 97 97 94 94 94 87 87 90 74 68 65 74 58 52 16 3 10 16 65 65 61 58 58 52
87 94 100 100 100 100 100 100 100 100 100 100 100 100 100 97 100 100 100 100 97 97 97 90 81 74 68 71 61 48 58 68 26 19 13 10 26 61 61 65 48 48 52
81 94 100 100 100 100 100 100 100 100 100 100 100 100 100 97 97 97 97 100 100 97 90 84 74 61 65 48 52 52 52 52 10 10 10 10 32 74 65 61 48 52 52
74 90 100 100 100 100 100 100 100 100 100 100 100 100 100 100 100 97 97 97 94 87 84 81 74 65 55 52 61 65 68 61 13 6 10 13 61 77 58 48 48 45 42
74 84 90 97 97 100 100 100 100 97 97 100 97 97 97 97 97 97 94 97 94 94 84 71 61 58 48 55 61 71 68 48 6 6 10 26 71 71 61 52 61 55 45
52 65 74 71 77 90 97 100 100 100 94 94 94 94 97 94 87 87 97 97 94 87 77 52 52 58 58 61 68 74 77 48 3 3 6 26 65 55 58 55 42 45 42
42 45 48 52 52 58 61 87 87 90 97 94 90 94 90 55 58 71 84 90 71 61 55 55 52 55 65 55 58 81 45 10 3 6 6 52 65 65 65 55 42 39 45
32 39 35 35 35 42 55 55 58 61 68 65 52 58 42 23 23 55 77 77 74 61 71 77 71 58 39 13 26 45 16 3 3 6 26 65 68 61 52 48 42 42 45
23 52 42 32 32 45 45 42 39 32 39 39 39 35 23 19 6 26 26 39 29 45 29 39 48 29 13 0 0 0 0 3 0 13 29 65 74 71 58 52 45 35 32
19 19 32 35 32 26 29 42 35 29 19 23 16 19 16 13 10 0 6 6 6 0 3 6 3 0 0 0 0 0 0 3 0 13 26 71 71 68 61 52 45 42 35
19 19 23 23 19 23 26 26 29 23 10 10 13 10 6 6 0 0 6 0 0 0 3 3 0 3 0 3 0 0 0 0 3 10 19 74 68 74 61 61 52 48 42
23 29 16 16 13 10 10 16 16 16 3 3 10 10 3 3 3 3 3 0 0 0 0 3 0 0 0 0 0 3 0 3 0 10 16 42 81 77 71 61 61 42 39
19 26 23 19 6 10 10 13 13 16 10 10 10 10 3 3 10 3 3 0 0 0 3 0 0 3 0 0 0 0 3 3 3 3 10 10 32 74 68 61 68 65 55
29 29 32 39 19 19 13 10 16 16 13 6 13 10 13 10 3 3 3 0 0 0 0 0 0 0 0 0 0 3 3 3 3 6 6 3 3 23 42 65 71 71 65
32 35 32 42 29 29 26 16 19 16 16 13 13 6 10 13 3 6 6 0 0 3 0 0 0 0 3 3 3 3 3 3 3 3 0 0 0 0 3 26 81 84 65
35 32 32 45 35 32 29 26 23 10 13 13 13 13 3 6 6 3 3 3 3 3 0 0 3 3 3 3 3 3 3 0 0 0 0 0 0 0 0 3 13 39 77
52 48 39 42 39 35 32 29 26 26 13 13 10 10 16 10 10 10 10 10 6 6 3 3 3 3 3 3 3 3 0 0 0 0 0 0 0 0 0 3 3 3 10
52 45 48 52 52 45 45 35 29 26 23 19 13 16 13 13 10 19 13 10 6 6 6 6 3 3 3 3 3 0 0 0 0 0 0 0 0 0 0 3 3 3 0
58 58 58 48 52 58 55 45 42 35 26 29 19 16 16 26 13 13 13 10 6 6 6 6 6 3 3 3 3 0 0 0 0 0 0 0 0 0 0 0 3 0 0
61 52 55 61 58 61 58 48 42 35 35 32 26 23 23 26 19 19 10 10 10 10 10 6 10 6 6 3 0 0 0 0 0 0 0 0 0 0 0 3 0 3 0
52 58 55 61 58 61 55 52 42 35 32 35 32 29 23 26 26 26 26 19 16 13 10 10 13 6 6 6 0 0 0 0 0 0 0 0 0 0 0 0 3 0 0
55 71 68 65 68 65 48 52 48 45 42 39 42 32 32 26 26 26 26 16 13 13 10 10 13 10 6 3 0 0 0 0 0 0 0 0 0 0 0 0 0 0 0